CZ-6A DEB, 54273

Orbit data source: Space-Track

CZ-6A DEB, 54273 is space debris in SSO originally from a launch on Fri, 11 Nov 2022 UTC launched from the Taiyaun Space Center, China (TSC). Debris objects in space refer to the collection of defunct objects orbiting the Earth. Examples of debris include non-operational satellites, rocket bodies, and fragments generated from explosions, collisions, or faulty payload assembly.

Loading next visibility...
Identifier
54273, 2022-151Q
Orbit
SSO
Country
Flag of CNCN / PRC
Related business
Manufacturer
SAST
Mission
Spacecraft
Bus & Motor
Unknown
Mass
Unknown
Launch date (UTC)
2022-11-11 (3 years ago)
Launch vehicle
Unknown
Launch site
Taiyaun Space Center, China (TSC)
Object type
Payload
Rocket body
Debris
Shape & HBR
Unknown shape, 0.1 m
Radar Cross Section
Small (<0.1 m²)

Expand to show TLE details & history
Last TLE update: 13 hours ago

TLE from 13 hours ago
0 CZ-6A DEB
1 54273U 22151Q   26130.00760787  .00001600  00000-0  71846-3 0  9995
2 54273  98.7925 145.0637 0025007  23.1576 337.0724 14.23667839180102
Epoch: 2026-05-10T00:10Z
TLE epoch observation values (Epoch: 2026-05-10T00:10:57.319Z)
Latitude
0.00001°
Longitude
-85.492°
Altitude
799.333 km
Speed
7.462 km/s
True Right ascension
09h 40m 15s
True Declination
0° 00' 00"
Sunlit
Object was in daylight at epoch
Visualization orbit readout
Latitude
Unknown
Longitude
Unknown
Altitude
Unknown
Speed
Unknown
Apparent Right ascension
Unknown
Apparent Declination
Unknown
Sunlit
N/A
Visualization observer readout
Local Sidereal Time
21:27:18
Azimuth
Unknown
Elevation
Unknown
Doppler factor
Unknown
Orbital elements
Apogee altitude
828.108 km
Perigee altitude
792.157 km
Semi-major axis
7,188.27 km
Eccentricity
0.0025
Inclination
98.7925°
RAAN
145.0637°
Arg. of periapsis
23.1576°
True anomaly
336.96044°
Mean anomaly
337.0724°
Eccentric anomaly
337.01645°
Mean motion
3.56128 °/min
Orbital period
101.09 mins
BSTAR
0.00071846
Loading maneuver chart data...
Computing Atmospheric mass density...
Loading historical data...
Loading historical data...
Loading historical data...
Loading historical data...
Loading historical data...
Loading historical data...
Loading historical data...

Documentation

Showing up to 5 results
|